Terminal Aerodrome Forecast
Issued by NWS Columbia, SC

Home | Current Version | Previous Version | Text Only | Print | Product List | Glossary On
Versions: 1 2 3 4 5 6 7 8 9 10 11 12 13 14 15 16 17 18 19 20 21 22 23 24 25 26 27
912
FTUS42 KCAE 140300 AAA
TAFCAE
TAF AMD
KCAE 140300Z 1403/1424 03008KT P6SM SKC
     FM140900 05008KT P6SM BKN150
     FM141500 06010KT P6SM BKN120=

USA.gov is the U.S. government's official web portal to all federal, state and local government web resources and services.